This is the latest recevied weather packets stored in our database for station/object KN6DHD. If no packets are shown the sender has not sent any weather packets the latest 1 day(s).
| Time | Temp. | Humidity | Pressure | Rain* | Wind** | Luminosity | Snow |
|---|---|---|---|---|---|---|---|
| 1778004847 | 15.56° C | 84% | 1016.3 hPa | 0 mm | 0.45 m/s, 55° | 277 W/m² | - |
| 1778004543 | 15.56° C | 85% | 1016.4 hPa | 0 mm | 0 m/s | 251 W/m² | - |
| 1778004240 | 15° C | 85% | 1016.3 hPa | 0 mm | 0.45 m/s, 167° | 208 W/m² | - |
| 1778003936 | 15.56° C | 85% | 1016.3 hPa | 0 mm | 0.45 m/s, 129° | 217 W/m² | - |
| 1778003633 | 15° C | 86% | 1016.4 hPa | 0 mm | 0.45 m/s, 153° | 221 W/m² | - |
| 1778003329 | 15° C | 89% | 1016.2 hPa | 0 mm | 0 m/s | 233 W/m² | - |
| 1778003027 | 14.44° C | 90% | 1016.2 hPa | 0 mm | 0 m/s | 215 W/m² | - |
| 1778002723 | 14.44° C | 93% | 1016.3 hPa | 0 mm | 0 m/s | 196 W/m² | - |
| 1778002419 | 13.89° C | 96% | 1016.3 hPa | 0 mm | 0 m/s | 145 W/m² | - |
| 1778002116 | 13.89° C | 98% | 1016.2 hPa | 0 mm | 0 m/s | 150 W/m² | - |
| 1778001814 | 12.78° C | 99% | 1016.5 hPa | 0 mm | 0 m/s | 147 W/m² | - |
| 1778001514 | 13.33° C | 99% | 1016.1 hPa | 0 mm | 0 m/s | 140 W/m² | - |
| 1778001211 | 13.33° C | 99% | 1016.4 hPa | 0 mm | 0 m/s | 139 W/m² | - |
| 1778000907 | 12.78° C | 99% | 1016.2 hPa | 0 mm | 0 m/s | 152 W/m² | - |
| 1778000604 | 12.78° C | 99% | 1016.3 hPa | 0 mm | 0.45 m/s, 87° | 133 W/m² | - |
| 1778000299 | 13.33° C | 99% | 1016 hPa | 0 mm | 0.45 m/s, 113° | 139 W/m² | - |
| 1777999995 | 13.33° C | 99% | 1016.2 hPa | 0 mm | 0 m/s | 153 W/m² | - |
| 1777999691 | 12.78° C | 99% | 1016.3 hPa | 0 mm | 0 m/s | 134 W/m² | - |
| 1777999388 | 13.33° C | 99% | 1016 hPa | 0 mm | 0 m/s | 127 W/m² | - |
| 1777999086 | 12.78° C | 99% | 1016.2 hPa | 0 mm | 0 m/s | 180 W/m² | - |
| 1777998785 | 12.78° C | 99% | 1016.1 hPa | 0 mm | 0 m/s | 160 W/m² | - |
| 1777998483 | 12.78° C | 99% | 1016.3 hPa | 0 mm | 0 m/s | 147 W/m² | - |
| 1777998178 | 12.78° C | 99% | 1015.9 hPa | 0 mm | 0 m/s | 163 W/m² | - |
| 1777997876 | 12.78° C | 99% | 1016.3 hPa | 0 mm | 0 m/s | 138 W/m² | - |
| 1777997573 | 12.78° C | 99% | 1016 hPa | 0 mm | 0 m/s | 117 W/m² | - |
* Rain latest hour (hover to see other rain measurements)
** Current wind speed in m/s (hover to see current wind gust speed)